Time,TemperatureF,DewpointF,PressureIn,WindDirection,WindDirectionDegrees,WindSpeedMPH,WindSpeedGustMPH,Humidity,HourlyPrecipIn,Conditions,Clouds,dailyrainin,SoftwareType,DateUTC
2013-11-04 00:00:00,34.0,20.0,-100.00,North,355,4.0,10.0,56,0.00,,,-99.99,,2013-11-04 05:00:00,
2013-11-04 00:44:00,34.0,20.0,-100.00,North,355,4.0,10.0,56,0.00,,,-99.99,,2013-11-04 05:44:00,
2013-11-04 00:53:00,34.0,20.0,-100.00,North,355,4.0,10.0,56,0.00,,,-99.99,,2013-11-04 05:53:00,
2013-11-04 01:00:00,32.0,20.0,-100.00,North,0,3.0,8.0,61,0.00,,,-99.99,,2013-11-04 06:00:00,
2013-11-04 01:42:00,32.0,20.0,-100.00,North,0,3.0,8.0,61,0.00,,,-99.99,,2013-11-04 06:42:00,
2013-11-04 01:52:00,32.0,20.0,-100.00,North,0,3.0,8.0,61,0.00,,,-99.99,,2013-11-04 06:52:00,
2013-11-04 02:00:00,32.0,20.0,-100.00,NNW,344,4.0,8.0,63,0.00,,,-99.99,,2013-11-04 07:00:00,
2013-11-04 02:43:00,32.0,20.0,-100.00,NNW,344,4.0,8.0,63,0.00,,,-99.99,,2013-11-04 07:43:00,
2013-11-04 02:52:00,32.0,20.0,-100.00,NNW,344,4.0,8.0,63,0.00,,,-99.99,,2013-11-04 07:52:00,
2013-11-04 03:00:00,31.0,20.0,-100.00,North,3,3.0,9.0,65,0.00,,,-99.99,,2013-11-04 08:00:00,
2013-11-04 03:42:00,31.0,20.0,-100.00,North,3,3.0,9.0,65,0.00,,,-99.99,,2013-11-04 08:42:00,
2013-11-04 03:52:00,31.0,20.0,-100.00,North,3,3.0,9.0,65,0.00,,,-99.99,,2013-11-04 08:52:00,
2013-11-04 04:00:00,30.0,20.0,-100.00,North,352,3.0,9.0,65,0.00,,,-99.99,,2013-11-04 09:00:00,
2013-11-04 04:43:00,30.0,20.0,-100.00,North,352,3.0,9.0,65,0.00,,,-99.99,,2013-11-04 09:43:00,
2013-11-04 04:53:00,30.0,20.0,-100.00,North,352,3.0,9.0,65,0.00,,,-99.99,,2013-11-04 09:53:00,
2013-11-04 05:00:00,29.0,20.0,-100.00,NNW,342,1.0,7.0,69,0.00,,,-99.99,,2013-11-04 10:00:00,
2013-11-04 05:42:00,29.0,20.0,-100.00,NNW,342,1.0,7.0,69,0.00,,,-99.99,,2013-11-04 10:42:00,
2013-11-04 05:52:00,29.0,20.0,-100.00,NNW,342,1.0,7.0,69,0.00,,,-99.99,,2013-11-04 10:52:00,
2013-11-04 06:00:00,29.0,19.0,-100.00,NNW,331,1.0,4.0,68,0.00,,,-99.99,,2013-11-04 11:00:00,
2013-11-04 06:43:00,29.0,19.0,-100.00,NNW,331,1.0,4.0,68,0.00,,,-99.99,,2013-11-04 11:43:00,
2013-11-04 06:52:00,29.0,19.0,-100.00,NNW,331,1.0,4.0,68,0.00,,,-99.99,,2013-11-04 11:52:00,
2013-11-04 07:00:00,29.0,20.0,-100.00,NNE,30,0.0,3.0,70,0.00,,,-99.99,,2013-11-04 12:00:00,
2013-11-04 07:42:00,29.0,20.0,-100.00,NNE,30,0.0,3.0,70,0.00,,,-99.99,,2013-11-04 12:42:00,
2013-11-04 07:52:00,29.0,20.0,-100.00,NNE,30,0.0,3.0,70,0.00,,,-99.99,,2013-11-04 12:52:00,
2013-11-04 08:00:00,34.0,19.0,-100.00,North,1,6.0,13.0,54,0.00,,,-99.99,,2013-11-04 13:00:00,
2013-11-04 08:42:00,34.0,19.0,-100.00,North,1,6.0,13.0,54,0.00,,,-99.99,,2013-11-04 13:42:00,
2013-11-04 08:52:00,34.0,19.0,-100.00,North,1,6.0,13.0,54,0.00,,,-99.99,,2013-11-04 13:52:00,
2013-11-04 09:00:00,38.0,19.0,-100.00,NE,40,13.0,15.0,47,0.00,,,-99.99,,2013-11-04 14:00:00,
2013-11-04 09:42:00,38.0,19.0,-100.00,NE,40,13.0,15.0,47,0.00,,,-99.99,,2013-11-04 14:42:00,
2013-11-04 09:52:00,38.0,19.0,-100.00,NE,40,13.0,15.0,47,0.00,,,-99.99,,2013-11-04 14:52:00,
2013-11-04 10:00:00,41.0,23.0,-100.00,ENE,58,3.0,16.0,48,0.00,,,-99.99,,2013-11-04 15:00:00,
2013-11-04 10:42:00,41.0,23.0,-100.00,ENE,58,3.0,16.0,48,0.00,,,-99.99,,2013-11-04 15:42:00,
2013-11-04 10:52:00,41.0,23.0,-100.00,ENE,58,3.0,16.0,48,0.00,,,-99.99,,2013-11-04 15:52:00,
2013-11-04 11:00:00,43.0,21.0,-100.00,East,94,4.0,14.0,41,0.00,,,-99.99,,2013-11-04 16:00:00,
2013-11-04 11:43:00,43.0,21.0,-100.00,East,94,4.0,14.0,41,0.00,,,-99.99,,2013-11-04 16:43:00,
2013-11-04 11:53:00,43.0,21.0,-100.00,East,94,4.0,14.0,41,0.00,,,-99.99,,2013-11-04 16:53:00,
2013-11-04 12:00:00,44.0,20.0,-100.00,NE,37,3.0,13.0,38,0.00,,,-99.99,,2013-11-04 17:00:00,
2013-11-04 12:42:00,44.0,20.0,-100.00,NE,37,3.0,13.0,38,0.00,,,-99.99,,2013-11-04 17:42:00,
2013-11-04 12:53:00,44.0,20.0,-100.00,NE,37,3.0,13.0,38,0.00,,,-99.99,,2013-11-04 17:53:00,
2013-11-04 13:00:00,46.0,21.0,-100.00,ENE,73,10.0,13.0,36,0.00,,,-99.99,,2013-11-04 18:00:00,
2013-11-04 13:42:00,46.0,21.0,-100.00,ENE,73,10.0,13.0,36,0.00,,,-99.99,,2013-11-04 18:42:00,
2013-11-04 13:52:00,46.0,21.0,-100.00,ENE,73,10.0,13.0,36,0.00,,,-99.99,,2013-11-04 18:52:00,
2013-11-04 14:00:00,47.0,19.0,-100.00,NE,51,7.0,12.0,33,0.00,,,-99.99,,2013-11-04 19:00:00,
2013-11-04 14:42:00,47.0,19.0,-100.00,NE,51,7.0,12.0,33,0.00,,,-99.99,,2013-11-04 19:42:00,
2013-11-04 14:52:00,47.0,19.0,-100.00,NE,51,7.0,12.0,33,0.00,,,-99.99,,2013-11-04 19:52:00,
2013-11-04 15:00:00,46.0,23.0,-100.00,ENE,71,4.0,13.0,40,0.00,,,-99.99,,2013-11-04 20:00:00,
2013-11-04 15:42:00,46.0,23.0,-100.00,ENE,71,4.0,13.0,40,0.00,,,-99.99,,2013-11-04 20:42:00,
2013-11-04 15:52:00,46.0,23.0,-100.00,ENE,71,4.0,13.0,40,0.00,,,-99.99,,2013-11-04 20:52:00,
2013-11-04 16:00:00,44.0,25.0,-100.00,ENE,71,8.0,10.0,45,0.00,,,-99.99,,2013-11-04 21:00:00,
2013-11-04 16:45:00,44.0,25.0,-100.00,ENE,71,8.0,10.0,45,0.00,,,-99.99,,2013-11-04 21:45:00,
2013-11-04 16:54:00,44.0,25.0,-100.00,ENE,71,8.0,10.0,45,0.00,,,-99.99,,2013-11-04 21:54:00,
2013-11-04 17:00:00,42.0,27.0,-100.00,East,79,5.0,8.0,54,0.00,,,-99.99,,2013-11-04 22:00:00,
2013-11-04 17:43:00,42.0,27.0,-100.00,East,79,5.0,8.0,54,0.00,,,-99.99,,2013-11-04 22:43:00,
2013-11-04 17:53:00,42.0,27.0,-100.00,East,79,5.0,8.0,54,0.00,,,-99.99,,2013-11-04 22:53:00,
2013-11-04 18:00:00,41.0,28.0,-100.00,East,96,2.0,6.0,61,0.00,,,-99.99,,2013-11-04 23:00:00,
2013-11-04 18:43:00,41.0,28.0,-100.00,East,96,2.0,6.0,61,0.00,,,-99.99,,2013-11-04 23:43:00,
2013-11-04 18:53:00,41.0,28.0,-100.00,East,96,2.0,6.0,61,0.00,,,-99.99,,2013-11-04 23:53:00,
2013-11-04 19:00:00,38.0,29.0,-100.00,NE,56,1.0,6.0,70,0.00,,,-99.99,,2013-11-05 00:00:00,
2013-11-04 19:42:00,38.0,29.0,-100.00,NE,56,1.0,6.0,70,0.00,,,-99.99,,2013-11-05 00:42:00,
2013-11-04 19:52:00,38.0,29.0,-100.00,NE,56,1.0,6.0,70,0.00,,,-99.99,,2013-11-05 00:52:00,
2013-11-04 20:00:00,37.0,28.0,-100.00,NE,49,2.0,4.0,69,0.00,,,-99.99,,2013-11-05 01:00:00,
2013-11-04 20:42:00,37.0,28.0,-100.00,NE,49,2.0,4.0,69,0.00,,,-99.99,,2013-11-05 01:42:00,
2013-11-04 20:52:00,37.0,28.0,-100.00,NE,49,2.0,4.0,69,0.00,,,-99.99,,2013-11-05 01:52:00,
2013-11-04 21:00:00,36.0,28.0,-100.00,NE,45,1.0,4.0,71,0.00,,,-99.99,,2013-11-05 02:00:00,
2013-11-04 21:42:00,36.0,28.0,-100.00,NE,45,1.0,4.0,71,0.00,,,-99.99,,2013-11-05 02:42:00,
2013-11-04 21:52:00,36.0,28.0,-100.00,NE,45,1.0,4.0,71,0.00,,,-99.99,,2013-11-05 02:52:00,
2013-11-04 22:00:00,36.0,28.0,-100.00,NNW,339,0.0,3.0,72,0.00,,,-99.99,,2013-11-05 03:00:00,
2013-11-04 22:44:00,36.0,28.0,-100.00,NNW,339,0.0,3.0,72,0.00,,,-99.99,,2013-11-05 03:44:00,
2013-11-04 22:54:00,36.0,28.0,-100.00,NNW,339,0.0,3.0,72,0.00,,,-99.99,,2013-11-05 03:54:00,
2013-11-04 23:00:00,36.0,28.0,-100.00,ENE,62,2.0,6.0,72,0.00,,,-99.99,,2013-11-05 04:00:00,
2013-11-04 23:44:00,36.0,28.0,-100.00,ENE,62,2.0,6.0,72,0.00,,,-99.99,,2013-11-05 04:44:00,
2013-11-04 23:53:00,36.0,28.0,-100.00,ENE,62,2.0,6.0,72,0.00,,,-99.99,,2013-11-05 04:53:00,